Location: Unspecified
(43.4354°N, 0.0000°E)
Time: 22:15:02
(UTC+00:00)

NUDT-PHONESAT - Visible Passes

Search period start: 13 October 2019 00:00
Search period end: 23 October 2019 00:00
Orbit: 487 x 506 km, 97.4° (Epoch: 13 October)

Date Brightness Start Highest point End Pass type
(mag) Time Alt. Az. Time Alt. Az. Time Alt. Az.
13 Oct ? 18:49:39 10° WSW 18:51:29 13° W 18:53:18 10° WNW visible
14 Oct ? 18:27:37 10° SSW 18:30:34 23° W 18:33:32 10° NW visible
15 Oct ? 18:06:16 10° S 18:09:43 40° W 18:13:11 10° NNW visible
16 Oct ? 05:34:42 10° ENE 05:36:47 15° E 05:38:52 10° SE visible
16 Oct ? 17:45:17 10° S 17:48:55 77° WSW 17:52:35 10° NNW visible
18 Oct ? 18:38:46 10° SW 18:41:14 17° W 18:43:43 10° NW visible
19 Oct ? 18:17:07 10° SSW 18:20:21 30° W 18:23:35 10° NW visible
20 Oct ? 05:44:46 10° NE 05:47:26 19° E 05:50:06 10° SE visible
20 Oct ? 17:55:56 10° S 17:59:30 55° W 18:03:05 10° NNW visible
21 Oct ? 05:25:25 10° ENE 05:26:29 11° E 05:27:34 10° ESE visible
21 Oct ? 17:35:05 10° SSE 17:38:43 78° ENE 17:42:22 10° N visible
22 Oct ? 18:50:08 10° WSW 18:51:52 13° W 18:53:37 10° WNW visible
